Theta_e
316 314 312 310 310 309 308 307 306 305 305 307 310 307 305 304 303 302 301 300 300 300 300 300 301 302 302 302 303 306 308 308 309 308 308 307 308 310 316 324 328 327 328 328 327 327 324 322 322 324 322 320 319 319 318 317 316 316 316 315 316 315 314 313 312 313 313 313 312 313 312 312 311 312 312 312 312 311 311 311 311 311 311 311 312
317 314 311 310 311 310 309 308 306 305 307 310 309 306 304 303 302 301 299 299 299 299 299 298 299 300 300 300 300 303 306 307 307 307 306 306 305 306 310 316 322 326 325 325 325 324 324 324 323 322 320 319 318 318 317 317 316 316 315 314 315 314 314 313 313 311 312 311 311 312 312 311 311 310 311 311 310 310 311 310 310 310 310 310 310
320 315 312 312 312 310 309 310 308 309 311 310 309 307 305 303 302 299 298 298 297 297 297 297 296 298 298 298 298 301 302 304 305 305 305 304 304 304 305 310 315 320 323 323 322 321 323 323 323 322 321 319 319 317 317 316 316 316 315 314 313 313 313 313 312 311 311 311 310 311 310 310 310 310 309 309 310 310 309 309 309 309 310 310 309
324 319 315 314 314 311 311 311 310 311 311 309 308 307 305 304 301 299 297 297 296 295 296 295 294 295 296 296 296 297 298 300 301 302 302 302 301 301 301 303 307 312 317 319 318 319 319 320 320 320 320 319 318 318 317 316 315 314 314 314 313 312 312 312 310 311 311 310 310 310 309 309 309 309 309 309 309 308 308 308 309 309 309 308 308
327 323 319 320 317 313 312 312 312 312 310 309 308 306 304 302 300 298 296 296 295 294 295 293 293 293 294 294 294 294 295 296 296 296 297 297 297 297 296 297 299 304 309 314 317 317 317 317 318 317 317 317 317 317 316 316 315 314 313 313 312 312 311 311 309 309 310 309 309 310 309 308 308 307 308 308 308 308 308 308 308 308 308 308 308
328 327 325 325 320 315 314 314 314 312 310 309 307 305 303 301 300 298 298 295 294 293 293 292 291 291 292 292 292 292 293 294 294 294 294 294 293 293 292 293 294 297 300 307 312 316 316 316 316 315 316 315 315 315 316 315 314 313 312 312 311 311 311 310 309 309 308 308 309 308 307 307 307 307 307 307 307 307 307 307 307 307 307 307 307
329 329 328 327 321 317 316 316 314 312 310 308 307 305 303 301 299 297 296 294 293 293 292 291 291 291 291 292 291 291 291 291 293 293 293 292 291 290 289 290 291 293 295 297 304 310 315 315 315 314 314 314 314 313 313 313 313 312 312 311 311 310 310 309 308 308 309 308 308 307 306 306 307 306 306 306 306 306 306 306 306 306 307 306 306
330 329 328 327 324 318 318 317 314 311 309 308 307 304 303 301 300 298 295 294 293 292 291 290 290 290 290 290 291 292 291 290 291 291 291 290 290 290 289 289 289 291 293 292 295 302 310 312 313 313 313 313 313 313 313 312 313 312 311 311 310 309 308 308 308 308 307 307 307 306 306 306 305 305 305 305 305 306 306 306 305 306 306 306 306
331 330 329 327 326 322 319 317 314 312 309 308 307 306 303 301 299 298 297 294 293 291 290 290 290 290 290 290 290 291 290 290 290 290 291 290 289 289 290 290 291 293 287 288 290 293 302 307 310 312 313 312 312 311 312 312 311 311 310 310 310 309 307 307 307 306 306 306 305 305 305 305 305 305 305 305 305 305 305 305 305 305 305 305 306
331 331 329 328 327 325 320 317 314 312 310 309 307 306 304 301 299 298 297 295 293 291 290 290 291 290 289 289 289 289 289 290 291 292 289 289 289 288 288 288 288 287 288 287 287 288 291 297 302 305 308 311 312 312 312 311 311 310 310 309 309 309 308 306 305 305 305 305 305 304 305 305 304 304 304 305 305 304 304 305 305 304 305 305 306
330 330 329 328 327 326 321 318 314 312 310 308 307 305 303 302 299 298 297 295 294 292 291 291 291 290 289 288 288 288 289 289 289 289 288 289 290 290 290 288 288 287 287 287 286 286 288 289 290 292 297 306 310 311 312 312 310 310 310 308 308 308 307 306 305 305 304 304 304 304 304 304 304 304 303 303 303 303 304 303 304 304 304 304 305
330 329 330 328 327 325 322 319 315 312 310 308 306 304 302 301 299 297 296 295 294 293 293 291 290 289 288 287 287 287 287 288 287 288 288 288 288 288 288 287 288 286 287 286 287 285 286 287 289 289 290 297 303 305 308 309 310 310 309 308 307 307 306 305 304 304 303 303 304 303 303 304 304 304 303 303 303 303 303 303 303 304 304 304 304
329 329 330 326 328 325 323 319 316 313 311 308 307 305 303 301 300 298 296 294 293 293 292 291 289 288 287 286 286 287 289 286 286 286 286 286 286 287 287 287 285 286 286 286 286 285 285 286 286 287 287 287 291 298 301 303 306 309 308 308 307 306 306 304 304 303 303 303 302 303 303 303 303 303 303 303 303 303 303 304 303 304 304 304 304
326 328 328 328 327 325 322 319 317 314 312 310 307 305 303 301 299 297 296 294 293 293 292 291 289 287 285 285 286 285 286 285 286 285 285 285 286 287 287 286 286 285 285 285 285 285 285 285 285 287 286 287 288 289 290 291 296 306 307 307 306 306 305 304 304 303 302 302 302 302 302 302 302 302 303 302 303 303 303 303 304 304 304 304 305
329 328 329 328 327 325 323 321 317 314 312 310 307 305 303 301 299 297 295 295 294 294 292 293 289 288 288 285 282 282 285 284 284 285 285 285 285 286 287 286 286 285 285 284 284 284 286 285 285 286 286 287 288 288 290 293 294 298 302 305 306 306 306 305 304 303 302 302 302 302 302 302 302 302 302 302 302 303 303 303 304 304 305 305 304
327 328 328 328 327 326 324 321 318 315 314 310 307 305 303 301 299 298 296 293 292 292 293 293 291 288 285 286 283 283 280 281 282 283 285 285 287 286 286 286 286 285 284 285 284 284 284 285 285 286 286 287 287 288 289 289 293 296 297 298 301 304 305 305 304 303 302 302 302 301 301 301 302 301 301 302 302 302 303 303 304 304 304 304 304
325 327 324 326 325 325 323 321 319 316 314 311 308 306 303 301 300 298 297 295 292 292 292 293 292 293 291 285 283 284 283 281 282 282 284 284 284 286 287 286 286 285 284 283 283 284 284 285 285 285 285 286 286 287 287 287 287 292 290 295 297 299 301 302 303 302 301 300 301 300 300 301 301 301 301 301 301 302 302 303 303 303 303 303 304
324 326 326 324 323 323 323 321 319 317 315 313 310 306 303 301 300 299 297 297 295 293 291 293 294 292 293 295 289 288 285 284 283 279 284 284 284 285 286 286 285 285 284 284 284 284 285 285 284 285 285 285 286 285 286 287 290 288 287 290 296 297 297 299 300 300 300 300 300 300 300 300 300 300 300 301 301 301 302 302 303 304 303 303 303
319 323 322 322 324 322 321 321 320 317 314 313 310 307 305 302 300 300 299 299 297 294 292 292 294 293 293 294 295 292 289 284 281 279 279 281 283 283 284 285 285 284 284 284 283 284 284 284 284 285 285 285 285 285 286 288 292 292 296 296 296 295 296 295 297 298 298 298 299 299 300 300 300 300 300 300 300 300 301 301 302 302 303 303 303
317 318 321 321 320 320 321 319 319 318 314 313 311 309 306 304 301 302 301 300 298 297 294 294 292 292 293 292 292 290 287 287 285 285 281 279 280 282 282 284 284 284 284 284 283 284 284 284 284 284 284 285 284 285 286 287 285 287 289 296 295 295 295 295 295 296 295 297 297 298 299 299 299 299 299 299 299 300 300 301 301 302 302 302 302
317 316 317 319 318 321 319 319 318 317 313 314 313 310 306 304 302 301 301 300 299 299 297 294 294 294 292 292 292 289 288 289 286 284 282 281 282 281 282 283 282 282 284 284 284 284 284 284 284 284 285 284 284 285 285 285 284 283 289 295 295 295 295 295 295 295 295 295 295 296 297 297 298 298 299 300 299 299 300 300 301 301 302 302 302
314 316 314 316 317 318 318 318 317 317 312 315 313 310 307 305 302 301 301 300 300 299 298 297 295 297 295 293 293 289 288 288 285 285 284 286 283 281 282 282 281 282 283 283 283 283 284 284 285 284 284 284 284 284 285 285 284 283 286 292 293 294 293 294 293 293 294 294 294 294 295 296 297 298 299 299 300 300 300 300 301 301 302 302 302
312 311 312 313 314 314 316 317 317 313 311 314 313 311 309 306 304 302 301 301 300 299 299 298 296 297 297 296 295 292 291 289 287 287 286 281 282 282 281 282 281 280 281 283 283 283 283 284 284 283 283 284 284 285 285 284 287 286 287 289 290 291 291 292 292 292 293 293 294 294 294 294 295 297 298 299 300 300 300 300 300 301 301 301 301
310 310 309 309 310 312 313 315 314 314 313 313 313 312 310 307 305 303 302 301 301 300 299 298 298 297 297 297 296 296 295 294 292 289 289 286 286 282 281 280 280 279 280 281 282 283 283 283 283 283 283 283 284 284 284 285 285 289 288 290 290 290 291 292 292 293 292 292 292 292 293 294 295 295 296 297 298 299 300 301 301 301 301 301 301
308 308 309 307 307 308 310 312 313 313 312 312 312 310 308 306 305 303 303 301 301 300 299 299 299 297 297 298 297 297 296 295 294 291 291 288 286 281 281 282 280 280 280 281 281 282 283 283 283 283 283 283 284 284 284 285 284 287 289 288 290 290 290 290 291 291 291 292 292 292 293 293 295 295 296 296 297 298 299 300 301 301 300 301 301
307 307 309 307 305 307 308 309 311 312 311 311 311 310 308 307 305 303 302 302 301 300 300 300 300 299 298 297 296 297 296 293 292 292 288 286 284 283 281 280 281 281 280 280 279 281 281 282 283 283 283 283 283 283 283 284 284 288 289 284 286 289 290 290 291 292 291 292 293 293 293 293 293 294 295 296 297 297 298 298 299 300 300 300 300
307 307 307 307 305 305 305 306 307 309 309 310 309 308 307 306 304 303 303 302 301 300 300 299 299 299 298 298 296 296 296 293 292 291 290 289 287 284 282 280 280 280 279 279 279 281 280 281 283 282 283 283 283 282 282 283 286 288 289 285 280 286 287 289 290 292 293 293 293 293 293 293 293 294 295 295 296 296 296 297 297 297 298 299 299
304 304 305 305 305 304 303 304 304 305 307 309 308 307 306 305 303 302 301 302 301 299 300 299 299 299 298 298 297 295 295 293 291 291 290 289 288 286 285 284 281 278 278 277 279 280 281 281 281 283 283 283 283 283 284 285 284 289 289 283 281 281 286 288 290 292 293 293 293 293 293 294 294 295 294 294 294 294 295 296 296 296 296 296 297
303 303 303 304 304 304 303 303 303 303 304 306 306 306 305 303 302 301 301 298 299 299 299 298 298 298 297 296 297 296 293 292 290 289 288 288 288 286 286 285 284 281 277 277 279 279 280 281 281 282 282 282 283 283 283 283 284 287 285 283 281 279 283 288 290 291 292 293 293 293 294 294 294 294 294 294 294 294 295 295 295 295 295 295 295
303 302 303 301 301 300 301 299 299 299 301 301 303 303 302 301 301 301 301 299 298 296 295 296 296 294 294 293 292 290 289 287 288 288 287 288 286 286 285 285 285 284 280 279 279 280 279 281 281 281 282 283 283 283 283 283 286 287 283 282 280 280 285 288 289 291 291 293 292 292 293 293 293 294 294 294 294 294 295 295 295 295 295 295 296
301 300 299 296 296 296 296 296 295 296 296 296 297 298 299 299 296 296 295 295 295 294 293 294 294 293 292 291 289 289 286 286 286 285 286 286 285 285 284 283 283 284 282 280 278 279 281 281 281 281 282 283 283 283 283 283 284 286 283 281 280 283 286 286 288 289 290 291 291 292 292 293 293 294 294 294 294 295 295 295 294 295 295 295 295
299 298 297 297 296 295 294 294 294 294 294 294 294 295 294 296 295 295 294 294 294 294 293 291 292 291 291 290 288 287 285 285 285 284 284 284 284 283 282 282 282 282 282 280 279 279 280 280 282 282 282 282 283 282 282 283 284 286 283 282 281 284 282 281 285 287 289 290 291 291 291 292 293 293 293 293 293 294 294 294 294 294 294 294 295
295 297 298 298 297 296 295 294 294 293 293 293 293 293 293 294 293 294 293 293 294 293 292 290 290 290 289 289 287 286 286 285 285 284 284 284 282 282 282 282 281 281 282 280 278 277 278 280 281 282 282 282 281 282 282 282 282 282 284 282 281 280 279 279 279 283 286 288 289 290 290 291 292 292 292 292 292 293 293 294 293 293 294 294 294
295 297 297 297 296 296 295 295 294 293 293 293 292 292 293 293 293 294 293 293 293 292 291 291 289 289 289 288 286 285 285 285 284 284 284 282 282 281 281 281 281 281 281 279 278 278 277 279 280 281 281 282 281 282 281 281 281 281 280 281 281 280 279 279 278 279 284 287 288 289 290 291 291 292 292 292 292 292 293 294 293 294 294 294 293
293 296 296 296 295 295 295 294 294 293 293 292 291 292 292 293 293 292 293 293 293 292 291 291 289 288 288 287 286 285 285 284 284 284 283 282 282 281 280 280 280 280 280 281 279 277 278 278 279 280 280 280 280 280 281 282 282 281 280 280 280 280 280 279 279 279 283 287 289 290 290 291 291 291 292 292 292 292 293 293 292 292 293 293 292
293 293 295 295 294 294 294 293 292 292 292 292 291 291 292 292 293 292 292 292 293 292 292 291 289 288 288 287 285 285 284 284 283 283 282 282 281 281 280 280 280 280 280 280 280 278 278 278 278 279 281 280 280 281 281 281 281 280 280 279 279 279 279 279 279 279 281 286 288 289 290 290 291 291 291 292 292 292 292 292 292 292 292 292 291
291 292 293 293 293 292 292 292 291 291 291 291 291 291 291 292 292 292 291 291 291 291 292 291 289 288 288 287 285 284 284 283 282 282 282 282 281 281 280 280 280 280 280 280 279 280 280 280 279 279 279 279 280 280 280 279 279 279 278 278 278 278 278 278 278 279 283 286 287 288 288 289 290 291 291 291 292 291 291 291 291 291 290 291 290
290 291 292 292 292 292 292 291 291 291 291 291 291 291 291 291 291 291 290 290 290 290 290 289 289 288 287 286 285 284 284 283 282 282 282 281 281 281 280 280 280 280 280 280 280 280 280 280 279 278 278 279 278 278 278 279 278 277 277 277 276 277 277 276 277 278 279 279 279 280 283 285 287 289 290 290 290 290 290 289 289 289 288 288 288
290 289 289 291 290 291 291 290 290 290 290 290 290 290 290 290 291 290 290 290 289 289 289 288 288 287 287 286 285 284 284 283 282 281 281 281 281 281 281 280 280 280 280 280 280 280 279 278 278 279 278 279 279 278 278 278 278 277 276 276 276 277 276 276 277 278 278 279 281 285 284 283 285 284 285 287 288 289 289 289 289 289 288 288 288
289 289 289 289 289 289 289 289 289 289 288 288 289 289 289 290 290 289 289 288 288 288 288 287 287 287 287 286 285 284 284 283 282 282 282 282 282 281 281 281 281 281 280 280 279 279 279 278 279 278 278 278 277 277 277 277 277 276 276 275 275 276 277 276 276 276 278 278 277 278 281 283 283 283 285 285 286 286 286 286 286 286 286 286 287
288 288 288 289 288 288 288 288 287 287 287 287 288 288 288 288 289 289 288 288 288 287 286 286 285 285 285 284 284 283 283 283 283 283 283 283 282 281 281 281 282 282 281 280 280 279 279 279 278 279 278 277 277 278 278 278 277 278 277 276 275 276 276 276 276 277 277 277 277 277 277 277 277 277 277 277 278 281 281 284 284 284 285 285 286
287 287 286 287 287 287 287 286 286 286 286 287 287 288 289 288 288 288 288 287 287 286 285 284 283 283 283 283 283 283 283 283 283 284 285 285 285 283 282 282 282 282 281 280 279 280 279 279 279 279 278 277 278 279 279 278 278 277 277 277 276 276 275 276 277 275 276 276 276 276 276 277 277 278 278 278 279 280 278 278 278 281 283 285 286
287 286 286 286 286 287 287 286 286 286 286 286 287 290 290 290 288 287 287 287 286 285 284 283 282 281 281 281 281 282 282 282 283 285 287 287 287 286 286 285 285 283 281 281 280 280 280 279 279 279 279 278 279 279 279 279 278 277 277 275 275 275 275 274 273 276 276 275 277 276 278 278 277 277 279 279 279 279 278 277 282 284 284 286 286
285 285 285 286 287 287 287 286 286 286 286 287 289 290 290 290 288 286 286 286 285 284 284 283 282 281 280 280 280 281 281 282 283 284 285 286 286 286 286 286 286 286 286 284 281 280 280 279 278 279 279 279 279 279 278 278 277 276 275 275 275 275 274 274 275 274 277 279 279 278 277 280 278 279 278 279 279 279 279 282 284 285 285 285 285
284 284 285 285 286 286 286 286 285 285 285 287 289 289 290 290 289 287 285 285 285 284 283 282 281 281 280 280 280 281 281 283 284 284 284 284 286 286 286 286 286 287 287 287 286 283 282 280 279 279 280 280 279 279 279 277 279 276 276 275 276 276 276 276 277 278 280 281 279 277 276 278 278 277 277 279 278 278 278 281 283 284 284 284 284
284 284 285 285 286 285 285 285 285 285 285 286 289 289 289 290 290 288 285 285 284 284 282 282 281 281 281 280 280 280 282 283 284 284 284 284 284 284 284 283 283 285 287 287 286 284 283 281 280 279 281 281 279 279 279 280 278 276 275 276 278 278 278 278 279 278 279 280 278 277 275 277 278 278 277 278 278 277 277 280 282 283 283 283 283
284 284 285 285 285 285 285 285 285 284 284 287 289 289 290 290 290 289 285 284 284 283 282 281 281 281 281 281 281 282 283 283 283 284 284 284 283 283 282 282 282 282 282 282 283 283 283 283 282 281 281 281 280 279 278 278 279 279 279 279 279 278 278 278 276 277 277 280 279 277 273 276 279 277 276 276 276 275 276 278 281 282 282 282 282
282 283 285 285 285 284 284 284 284 284 283 287 289 289 289 289 290 285 284 284 283 282 281 280 281 281 281 281 282 283 283 282 284 285 285 283 282 281 280 280 279 279 280 283 284 284 283 282 282 282 281 281 283 280 281 280 280 280 280 278 275 275 276 276 275 277 277 279 278 277 274 274 277 274 274 274 274 273 274 274 278 280 281 281 282
282 283 284 284 284 284 284 284 284 284 283 286 288 288 289 290 288 283 283 283 282 281 280 280 280 280 281 282 283 282 282 281 285 286 286 284 281 280 279 278 278 279 279 280 284 285 285 285 285 285 285 284 284 284 284 284 284 281 278 276 276 277 276 275 275 276 273 275 276 277 274 272 273 273 272 273 273 273 272 273 274 278 280 280 280
281 282 283 284 284 284 284 283 284 283 283 285 288 288 288 289 287 284 283 282 281 280 280 279 279 279 280 282 282 281 281 282 286 287 287 283 281 280 279 278 278 277 277 278 280 281 284 284 283 283 283 283 283 284 284 284 284 283 279 276 278 278 276 276 273 273 273 275 275 275 271 272 273 273 271 271 271 271 272 272 273 274 277 277 278
281 281 283 283 283 283 283 283 284 283 283 284 287 288 288 289 287 284 283 281 280 279 279 278 279 279 279 281 282 282 282 284 288 288 286 283 281 280 280 279 277 277 277 278 277 277 277 276 277 278 279 281 281 280 280 283 283 282 280 279 278 276 274 274 274 274 272 274 274 274 269 269 269 270 269 266 265 269 271 271 271 272 272 273 273
Wind_Speed
7 7 6 6 5 5 5 6 6 6 5 3 3 4 4 5 5 5 5 6 5 6 6 6 6 6 6 6 5 6 6 6 6 6 5 5 6 11 15 7 13 15 17 17 19 17 15 13 16 18 18 17 16 16 16 16 16 17 16 16 16 16 16 16 17 16 16 16 16 16 16 17 17 17 17 17 17 17 17 17 17 18 18 18 18
8 7 8 7 6 6 5 6 6 6 5 3 4 5 6 5 5 5 6 6 6 5 6 6 6 6 6 6 6 6 5 5 6 5 5 6 6 8 15 14 10 14 16 16 16 15 14 16 15 16 16 14 14 16 15 15 16 16 16 15 15 15 15 15 16 16 15 15 16 16 16 16 16 16 15 16 16 16 16 16 17 17 17 17 18
8 9 7 8 7 7 7 6 6 6 5 5 5 6 6 6 5 5 5 6 6 5 6 7 6 6 5 6 5 6 6 5 5 5 6 6 6 6 10 15 16 16 9 14 14 14 16 16 16 16 16 15 15 15 14 14 15 14 15 16 15 14 14 14 14 14 14 15 15 15 15 15 15 15 14 15 15 15 15 16 16 15 16 16 17
10 9 9 8 8 8 8 7 7 6 5 6 6 6 6 5 5 4 4 6 6 5 5 7 6 6 6 6 5 6 5 5 5 5 6 6 6 6 7 8 14 16 16 9 10 10 10 12 12 13 14 13 13 13 13 13 12 12 13 14 15 15 14 14 14 14 14 14 14 14 14 14 14 13 13 14 14 14 15 15 14 15 15 16 17
9 11 9 9 8 9 8 9 7 6 6 7 7 7 7 6 6 5 5 5 7 6 5 6 7 6 6 5 6 6 5 5 5 5 6 6 6 6 6 7 7 12 15 16 9 9 9 9 12 12 11 12 12 13 12 12 11 11 11 12 12 13 13 13 12 13 13 13 13 12 12 13 12 12 13 13 13 13 14 13 14 15 15 16 16
10 10 9 8 9 9 9 8 7 7 7 8 8 7 7 7 7 6 5 6 7 6 7 7 6 6 6 5 6 5 6 6 5 5 5 5 5 6 6 6 6 6 8 13 15 9 9 9 10 9 10 10 10 12 14 12 11 11 11 11 11 12 12 11 12 13 12 12 12 11 11 12 11 11 11 12 12 12 12 13 14 14 15 15 15
10 10 10 9 9 9 9 9 8 8 8 7 8 6 7 9 7 7 5 5 5 5 6 7 7 7 6 6 6 6 6 6 6 6 6 5 6 5 6 6 6 6 6 6 9 12 10 10 9 9 9 10 9 9 10 9 11 11 11 11 11 11 11 11 11 12 11 10 10 10 10 10 10 10 10 10 11 11 12 12 13 14 14 14 15
10 10 9 9 8 9 9 8 9 8 8 7 8 8 7 7 7 9 8 6 6 4 4 6 6 7 6 6 6 6 6 6 6 6 5 6 6 5 5 6 6 6 5 5 5 7 13 13 12 9 8 8 9 9 9 9 9 9 10 11 12 11 11 11 11 10 10 10 10 10 9 9 9 9 9 10 10 10 11 11 12 13 13 14 15
10 10 9 9 8 8 8 9 10 10 9 8 8 7 8 8 8 7 7 8 8 7 4 5 6 5 6 6 5 6 6 6 6 5 5 6 4 5 5 4 4 4 4 4 5 5 9 14 14 14 11 9 7 8 8 8 8 8 8 9 11 11 10 10 10 10 9 9 8 8 9 9 8 8 9 9 9 10 10 11 12 12 13 13 14
10 9 9 9 9 8 8 9 9 9 10 9 9 8 7 8 9 6 6 8 8 8 6 5 5 5 6 5 6 6 5 6 5 4 6 5 5 5 4 4 4 3 3 4 4 4 5 8 12 13 13 9 10 9 8 6 7 8 8 8 9 9 9 9 8 9 8 8 8 7 8 8 8 8 8 8 9 10 10 11 11 12 12 13 14
9 9 9 8 8 8 9 10 9 9 9 9 9 9 8 7 9 8 4 3 7 8 8 7 5 5 5 4 4 5 5 5 5 6 6 4 5 4 4 5 4 3 4 4 4 4 5 5 5 5 7 13 10 9 10 11 6 7 7 7 7 9 9 8 8 8 7 7 7 7 7 7 8 8 8 9 9 8 10 10 10 11 12 13 14
9 9 10 9 9 8 9 9 9 10 10 10 9 9 11 9 9 10 9 5 4 6 8 9 7 6 5 5 4 4 4 5 5 4 4 5 5 4 5 3 5 4 4 3 4 3 4 4 4 5 4 7 10 11 13 12 10 8 5 7 7 7 9 8 7 6 5 5 5 6 6 6 7 8 8 8 9 9 10 11 11 12 12 13 14
9 9 10 10 10 9 9 10 10 10 11 12 12 13 12 12 10 9 12 10 6 6 7 10 11 5 4 4 5 3 4 4 4 4 4 4 4 6 4 5 4 4 3 3 4 3 3 3 3 4 4 4 5 9 11 12 10 9 8 6 6 6 7 7 6 4 5 4 4 5 5 6 6 7 8 8 9 10 10 11 11 12 13 13 14
9 8 9 10 10 10 10 11 11 10 10 11 13 13 13 11 9 8 6 10 8 9 9 11 4 8 8 3 3 3 3 3 3 3 3 4 4 5 4 5 5 4 3 5 3 3 3 3 3 4 3 4 3 4 5 5 7 9 8 7 5 5 5 5 6 4 3 4 4 4 5 5 6 7 7 8 8 9 10 10 11 12 13 13 14
10 10 9 9 10 10 10 10 11 10 10 8 8 9 11 14 14 13 10 6 6 8 10 7 5 5 5 7 3 4 1 1 1 2 3 3 3 4 4 5 5 4 4 4 3 3 3 3 3 4 3 3 3 3 3 4 4 8 9 8 6 5 4 5 5 4 4 3 3 4 4 5 6 7 7 9 9 9 10 11 12 12 13 14 14
8 9 10 10 10 11 11 11 11 10 11 11 11 10 9 9 10 10 11 11 7 10 11 7 7 13 6 3 4 3 2 8 7 3 4 4 4 4 4 5 5 4 4 5 4 3 3 3 3 3 3 3 3 3 3 2 4 6 7 8 7 5 4 4 4 4 3 3 3 3 3 4 5 6 8 9 10 10 11 12 12 13 13 14 15
9 10 8 10 10 10 11 11 12 12 11 11 12 13 13 12 13 12 13 13 10 8 10 8 8 7 6 8 2 1 7 3 8 2 2 3 4 4 4 5 5 6 5 4 4 4 4 3 3 3 4 3 3 3 3 3 3 2 3 5 5 5 4 3 3 3 3 3 3 4 4 5 5 7 8 9 10 11 12 13 13 14 14 14 15
7 9 13 10 9 10 10 11 12 11 12 11 11 11 14 14 14 13 14 13 15 12 11 10 8 11 8 2 5 7 7 6 9 6 2 3 4 5 6 6 5 6 5 5 5 4 3 4 3 4 3 3 3 3 3 3 2 1 1 0 3 3 3 2 2 3 3 3 4 5 5 6 7 8 9 10 11 12 13 13 14 14 15 15 15
7 7 7 11 13 11 11 11 12 11 11 10 11 13 13 14 12 13 14 12 10 13 15 13 7 9 9 8 4 3 8 10 7 7 3 3 3 4 5 5 5 6 6 6 6 5 4 4 4 4 3 3 4 3 3 3 3 3 4 4 4 3 2 2 2 3 4 4 5 6 7 8 8 9 10 11 12 13 14 14 14 15 15 16 16
7 7 8 10 9 9 11 11 11 12 11 11 12 11 10 10 13 14 12 11 13 13 13 11 14 12 12 9 2 0 6 2 7 11 7 8 6 2 2 6 5 5 7 7 7 7 6 5 5 4 4 4 4 4 4 3 3 1 1 4 5 4 3 2 1 1 3 5 6 7 8 9 10 10 11 12 13 14 14 15 15 15 16 17 17
9 8 7 7 11 13 11 10 11 11 12 11 10 11 13 13 12 11 10 11 11 12 11 13 13 12 10 8 4 4 3 1 5 5 5 6 3 9 7 2 3 4 6 6 7 7 7 7 6 5 4 4 4 5 5 5 4 3 2 3 4 4 3 3 2 1 2 3 5 7 8 10 10 11 12 13 14 14 15 15 16 16 17 18 18
10 10 7 7 8 9 12 13 12 11 11 13 12 12 13 13 15 15 15 15 12 11 13 12 13 12 12 11 8 5 3 2 3 4 3 3 8 10 9 11 11 8 5 6 7 6 6 6 5 5 5 5 4 5 5 5 4 3 4 4 3 2 2 2 3 2 4 4 6 7 8 10 11 12 13 14 15 15 16 16 17 17 18 18 19
7 9 10 8 7 9 10 11 11 10 10 11 12 13 13 14 14 15 15 15 12 12 10 9 10 10 9 9 11 12 13 13 10 8 7 5 4 5 7 9 7 5 7 6 7 7 7 6 6 6 6 6 5 5 5 5 5 5 8 5 4 4 4 4 4 5 5 6 7 8 10 10 11 13 14 15 15 16 17 17 17 18 18 19 20
8 8 9 9 8 8 9 9 10 10 11 11 11 12 12 13 13 14 13 13 11 10 10 9 9 8 7 8 9 7 5 4 6 9 9 7 9 8 8 4 1 4 2 4 4 7 7 7 7 7 7 6 6 5 5 6 5 9 6 6 6 5 5 5 6 6 6 7 9 10 11 12 12 13 14 15 16 16 17 18 18 19 19 20 21
9 10 11 10 9 8 8 9 9 9 10 10 10 11 10 10 9 10 12 13 13 13 12 13 13 12 12 10 9 8 8 5 4 9 4 5 8 6 3 6 5 5 3 4 4 3 6 7 7 6 6 6 5 6 6 5 5 7 7 5 8 7 7 7 7 7 8 9 10 11 12 13 13 14 15 15 15 16 17 18 19 19 19 20 21
10 11 10 9 8 8 8 9 9 9 10 11 11 12 12 12 13 13 14 13 13 14 14 14 12 13 11 10 10 10 10 8 8 7 8 8 7 10 9 3 2 5 1 4 2 4 4 5 6 6 6 6 6 5 5 5 5 8 9 5 6 8 8 8 9 10 10 11 12 12 13 14 14 15 15 16 16 16 17 18 19 20 20 20 21
10 9 8 9 9 8 8 8 8 8 9 10 10 9 10 10 10 11 11 10 11 11 11 11 11 11 10 10 10 10 10 9 6 8 7 8 9 10 12 10 3 2 3 3 2 6 3 3 6 6 7 6 6 5 6 5 6 8 9 5 4 7 8 9 10 11 12 13 13 13 14 14 15 15 15 16 17 17 18 19 19 20 20 20 21
8 8 9 9 10 10 8 9 7 7 8 10 10 10 10 10 9 9 11 9 11 12 13 13 14 14 14 12 10 11 10 10 9 8 8 8 8 10 11 12 12 5 3 4 5 7 4 3 3 6 6 6 6 6 6 6 5 8 8 5 5 5 8 10 12 13 13 13 13 14 15 15 16 16 16 16 17 17 18 19 19 20 20 21 21
8 8 9 9 9 9 9 9 8 7 8 9 9 10 10 10 10 10 11 8 9 12 11 11 12 12 10 12 12 10 10 9 8 7 7 7 8 10 11 13 10 10 8 8 9 8 5 6 5 6 7 6 6 5 5 6 5 6 4 5 5 5 7 11 13 14 14 14 14 15 15 16 17 17 17 17 17 18 19 19 19 20 21 21 22
8 7 8 10 9 10 9 8 8 7 8 7 8 9 9 9 10 10 10 9 10 8 8 9 10 8 9 8 7 6 6 7 8 8 8 9 8 10 10 8 10 11 9 10 8 6 3 4 3 4 5 7 6 5 5 6 6 7 5 6 6 6 8 12 13 14 15 15 15 15 16 17 17 18 17 17 18 19 19 20 20 21 22 23 23
8 7 7 8 8 8 7 7 6 7 6 6 6 6 8 9 8 7 6 7 7 8 7 8 8 9 9 10 8 8 7 8 7 7 7 8 8 6 6 6 7 9 10 7 5 4 3 6 6 3 6 7 6 6 4 5 6 7 6 6 6 8 10 9 13 15 15 15 15 16 17 17 18 18 18 18 19 19 20 20 21 22 23 23 24
7 7 8 9 9 9 8 7 7 7 7 6 6 5 5 6 7 7 7 8 9 9 8 6 6 8 9 10 9 8 8 7 7 7 7 6 7 7 7 6 5 7 9 7 7 6 3 6 7 5 5 7 6 7 6 5 4 7 6 6 6 6 6 6 10 15 15 15 16 17 17 17 18 19 19 19 20 20 20 21 22 23 23 24 23
7 8 8 8 9 9 9 9 9 8 8 7 6 6 6 6 5 7 6 7 8 7 7 6 5 8 9 10 9 8 9 10 8 7 6 6 7 6 7 7 6 6 8 7 8 7 1 1 4 5 5 6 5 6 6 5 4 5 5 6 4 4 6 6 6 10 14 15 16 17 17 18 18 19 19 19 20 20 21 22 22 22 23 23 23
7 9 9 7 7 8 9 9 9 8 8 8 7 7 7 7 7 7 7 8 8 7 7 8 7 7 8 9 9 8 8 10 9 8 7 8 8 8 7 8 7 6 7 6 6 7 5 1 2 3 3 3 4 4 7 6 6 4 6 6 4 5 7 6 6 7 13 14 15 17 18 18 19 19 19 19 20 20 21 22 21 22 23 24 25
7 8 9 8 8 8 8 8 8 8 8 7 6 7 7 9 9 8 8 9 10 9 9 9 9 8 8 9 9 8 6 8 8 7 6 7 6 8 8 7 8 7 6 8 8 5 8 4 3 4 3 3 5 5 6 6 5 4 5 6 6 6 6 6 6 7 10 14 16 17 19 19 19 20 20 20 21 21 21 21 22 23 24 25 26
8 7 7 8 8 8 8 8 8 8 8 7 7 7 9 9 9 9 8 8 9 10 11 10 10 10 11 10 9 10 9 10 9 7 6 5 7 6 7 6 8 7 6 7 6 7 5 7 3 6 4 5 5 3 3 3 5 5 6 5 3 6 6 5 6 7 9 14 16 18 19 20 20 20 21 22 22 22 22 22 22 23 24 25 26
6 6 6 6 7 8 8 8 8 8 8 8 9 8 8 8 8 8 8 8 8 9 10 10 10 11 11 12 11 9 9 10 8 8 8 8 8 8 7 7 8 7 7 7 6 6 7 8 5 2 4 4 4 3 3 4 5 5 4 5 6 6 6 4 4 7 10 14 16 18 18 20 20 20 21 22 22 22 22 22 23 24 25 25 26
6 6 7 7 7 8 8 8 8 9 8 8 9 9 9 8 7 6 6 7 7 7 8 8 10 10 10 9 10 10 10 11 10 8 9 9 9 8 8 7 7 6 8 7 6 6 6 6 6 4 3 5 2 3 4 5 5 5 4 5 4 4 5 6 5 5 5 4 5 7 11 13 17 21 22 22 22 22 22 22 24 27 28 27 28
8 7 6 7 7 8 8 8 8 8 8 8 8 8 7 7 8 8 8 7 7 7 7 8 9 9 9 9 10 11 11 10 11 11 11 12 11 11 10 10 8 9 8 7 7 7 6 6 3 4 4 3 3 3 2 3 4 3 4 6 6 4 5 5 6 3 3 5 8 12 12 12 14 11 14 19 19 20 21 22 24 27 28 28 26
8 8 8 8 7 7 8 8 8 7 7 7 7 7 7 8 8 8 8 8 7 7 6 7 8 10 10 10 11 12 12 12 12 11 11 10 9 10 9 9 9 9 8 7 6 6 6 5 4 5 4 4 1 1 1 1 1 3 4 5 8 6 5 3 3 6 3 4 6 7 7 9 10 10 13 14 14 16 19 18 20 22 22 24 26
7 8 7 7 8 7 6 7 7 7 8 8 7 8 8 8 8 9 9 9 9 8 7 7 7 8 8 9 10 11 11 13 17 16 15 13 11 10 8 9 9 9 7 6 6 6 4 4 4 3 3 3 3 3 2 3 4 5 2 1 4 5 5 6 2 4 5 5 6 6 4 2 6 5 5 6 6 10 11 15 14 18 21 23 26
7 7 6 7 7 8 8 7 7 7 7 6 9 13 10 8 8 7 7 8 8 8 8 8 8 8 9 9 10 15 15 17 17 16 14 12 13 12 11 9 9 8 8 8 7 6 6 6 6 5 4 4 4 3 3 3 3 1 2 3 5 5 5 7 5 2 4 4 5 7 5 0 4 9 7 8 6 7 6 7 8 12 16 22 25
8 7 7 8 7 7 8 8 8 7 7 7 12 12 13 12 9 8 9 8 8 8 9 10 10 10 8 7 8 12 15 14 14 17 13 9 10 10 12 11 10 12 10 8 7 7 7 6 4 4 3 4 3 3 3 3 2 2 2 1 3 5 6 7 10 4 2 3 7 8 11 2 4 8 8 7 7 6 5 6 13 19 23 25 26
7 7 8 8 8 8 7 8 8 8 7 8 12 13 13 13 10 9 8 7 8 9 9 9 8 9 9 9 8 9 10 13 12 12 14 14 11 12 12 11 11 8 10 8 7 6 6 6 5 4 4 4 3 3 2 1 2 0 1 2 3 4 5 6 6 7 3 4 8 11 13 6 2 7 8 7 6 5 7 13 21 24 25 25 26
7 8 8 8 8 8 8 9 8 8 7 10 12 14 14 14 13 10 6 7 8 8 9 9 9 9 9 9 9 8 9 15 14 13 11 11 12 13 12 11 9 9 7 7 6 5 6 5 5 4 5 3 3 3 2 2 1 1 2 2 3 3 4 6 6 6 6 6 7 9 11 7 6 7 8 7 6 5 7 11 21 25 26 26 26
8 8 7 8 8 8 9 9 8 7 7 10 15 16 15 15 14 10 6 7 7 8 9 10 9 11 12 12 11 10 10 11 10 11 10 9 9 8 7 5 4 4 5 5 6 8 5 5 5 4 3 4 4 3 2 0 1 3 2 3 3 5 5 6 6 6 6 4 6 8 10 8 6 7 8 7 6 6 7 15 25 25 26 25 25
9 9 9 8 7 7 7 7 6 6 6 10 14 14 14 15 15 11 6 6 6 7 9 10 11 12 12 12 13 14 13 11 9 11 11 10 9 7 6 5 4 2 2 2 2 3 4 4 4 4 3 2 3 3 3 3 4 4 3 3 4 4 5 5 3 4 4 5 4 4 9 8 5 6 8 9 9 9 8 13 22 24 24 25 25
5 5 5 6 7 7 7 7 6 6 5 11 12 13 13 14 14 8 7 7 7 7 8 9 9 10 11 12 13 13 12 11 11 14 11 10 9 9 8 5 4 3 2 3 4 4 4 3 3 4 3 4 6 5 4 4 4 3 3 1 1 3 5 7 7 2 1 1 4 6 5 5 5 6 9 9 9 9 8 9 14 22 23 23 23
7 7 7 7 6 7 7 7 7 6 5 10 13 13 13 15 10 7 8 7 7 7 7 8 8 9 10 11 12 12 12 10 14 16 16 13 9 9 8 7 5 4 3 1 4 6 6 6 6 6 5 3 0 2 3 5 3 2 1 1 4 2 4 5 6 5 3 5 2 3 4 7 4 6 8 9 9 10 8 8 8 15 21 23 26
8 7 6 6 6 6 8 8 7 7 6 8 13 13 13 15 10 8 7 7 7 7 6 7 7 7 9 13 10 11 11 11 16 16 16 12 10 9 9 8 7 5 3 2 1 2 5 5 5 4 3 2 1 2 3 4 5 5 2 2 2 1 4 5 5 5 6 4 5 9 5 6 6 7 8 9 12 8 7 7 9 11 19 18 22
6 6 6 6 5 5 6 6 8 7 6 8 14 15 15 17 11 7 7 7 8 7 7 6 5 6 7 8 11 9 10 13 18 16 14 10 9 8 8 8 7 6 5 5 4 3 3 2 1 2 1 2 2 1 2 5 7 7 5 4 4 3 3 3 4 6 5 1 8 10 5 6 7 7 8 9 9 11 6 5 9 9 10 11 12
Wind_Direction
157 161 158 162 162 164 159 158 161 168 164 159 112 119 96 95 97 102 100 101 98 90 87 76 73 68 78 75 71 65 60 55 53 47 42 39 36 33 30 48 124 122 120 111 107 106 105 106 109 101 98 98 99 95 91 89 86 85 83 81 79 77 75 73 71 68 66 65 63 63 62 61 59 59 57 54 53 51 50 50 47 44 42 40 38
162 164 163 169 167 164 163 168 170 177 166 148 132 117 116 103 102 105 107 107 100 102 95 83 71 70 70 78 69 70 64 59 52 50 39 43 33 35 27 25 36 107 107 105 107 113 113 110 105 104 104 102 96 96 94 90 90 89 83 77 76 78 75 74 71 69 66 64 63 62 61 59 57 57 56 55 52 49 47 46 44 42 41 37 36
166 166 171 167 171 167 171 171 178 185 167 139 133 126 120 123 126 125 120 114 109 107 103 95 88 81 82 81 83 83 75 65 62 52 53 39 39 32 31 25 31 27 71 117 119 120 117 116 115 112 108 104 101 98 96 95 93 91 88 84 80 76 76 74 73 68 67 65 63 63 61 58 56 53 51 50 50 48 45 44 44 37 37 34 33
170 171 172 172 173 175 172 175 186 180 158 139 134 128 128 120 111 111 116 112 111 103 104 104 97 101 97 92 88 85 82 77 71 62 56 50 39 40 35 30 26 32 20 53 102 107 116 118 112 110 109 106 100 95 96 96 96 94 92 91 86 79 73 71 68 67 62 63 62 62 59 57 55 54 50 49 47 46 45 41 38 35 33 31 29
174 174 175 176 174 175 177 181 178 166 155 141 134 127 121 119 115 119 113 108 110 111 103 102 109 109 101 103 95 87 85 82 73 63 55 52 43 40 40 36 33 30 24 20 57 103 100 106 116 120 115 111 110 105 95 95 96 88 84 84 83 87 84 79 73 67 63 60 60 58 59 58 51 49 49 48 44 39 41 35 35 32 30 29 27
177 177 177 175 175 178 178 180 170 162 151 143 141 142 138 138 140 131 133 131 130 137 125 114 112 108 103 108 95 98 92 80 75 69 68 58 51 47 46 40 38 38 27 25 19 41 106 109 106 105 113 113 110 113 113 105 95 88 85 86 85 81 81 74 70 69 66 61 59 53 52 54 51 48 44 47 42 43 34 29 31 28 27 26 24
184 179 183 176 174 177 179 175 162 155 151 154 145 148 148 148 149 136 136 130 130 141 131 130 128 118 118 111 106 100 82 88 77 75 69 69 61 56 50 52 42 46 33 29 24 23 52 89 96 106 114 118 118 112 111 110 105 96 88 84 80 77 79 80 70 65 64 63 58 56 51 52 52 42 40 35 36 33 34 24 26 24 22 20 18
186 185 184 183 177 175 176 162 157 150 150 152 147 154 158 150 155 149 143 147 136 134 129 126 124 121 120 107 106 96 97 90 89 84 84 77 72 65 64 60 59 50 47 34 27 22 38 48 62 72 83 92 107 113 110 108 109 112 107 100 89 81 74 71 73 70 65 61 60 55 54 48 47 43 36 35 32 23 30 19 20 19 17 13 12
190 187 185 186 183 179 170 165 159 154 156 159 161 159 158 156 158 165 156 150 146 139 127 120 118 116 116 110 105 103 99 105 103 105 89 85 79 77 73 70 68 66 54 50 34 27 28 44 47 40 39 63 80 105 120 119 118 108 102 103 98 89 81 75 72 70 65 63 59 55 52 42 37 37 32 27 29 12 21 14 15 11 10 9 4
192 189 187 188 185 181 170 167 163 158 159 162 166 161 164 161 159 165 158 150 150 146 139 119 110 106 96 103 110 101 106 103 103 99 100 99 91 89 98 93 83 64 52 50 50 43 40 35 38 34 34 48 68 74 83 102 117 117 115 105 101 98 93 82 72 72 70 62 57 53 45 43 34 33 24 20 23 14 4 12 5 2 5 359 358
189 190 188 186 188 184 173 172 166 163 160 165 160 163 163 170 162 151 136 141 153 146 138 128 108 96 90 80 86 97 104 100 101 103 106 118 116 115 98 88 93 72 70 65 68 64 59 50 47 46 36 50 65 82 76 54 66 128 121 113 106 109 97 88 75 71 70 67 60 49 43 35 28 25 13 11 13 7 349 1 355 353 358 351 352
187 189 191 187 188 185 178 175 175 166 165 165 166 168 168 168 172 157 146 115 116 137 136 123 98 85 85 73 75 89 88 103 102 117 123 118 123 117 108 100 86 84 78 81 78 73 71 65 67 61 49 42 50 49 50 54 57 60 84 122 117 108 114 106 87 75 75 67 57 48 37 35 27 15 8 2 357 0 348 350 348 346 348 346 345
194 182 196 189 188 183 179 180 181 176 174 175 172 175 176 175 167 163 154 150 152 156 153 134 125 82 52 66 56 52 84 93 102 107 118 138 135 122 123 99 102 98 93 83 78 78 79 77 82 78 68 65 40 42 44 36 39 67 66 79 107 108 107 103 99 83 69 66 57 45 34 29 18 7 1 358 356 349 345 344 340 339 341 340 339
200 191 193 190 187 183 184 185 182 184 182 181 178 177 174 170 156 151 167 159 162 170 169 136 152 160 147 133 32 40 67 76 92 91 117 144 147 134 136 130 128 130 99 87 82 89 94 103 101 96 92 79 69 58 43 34 21 49 62 62 77 114 119 109 109 95 69 62 50 44 27 18 5 359 351 351 346 341 339 338 336 336 335 336 337
200 198 198 196 190 183 187 182 187 179 173 170 177 179 180 174 170 164 162 170 153 175 182 197 136 121 111 107 185 146 263 57 324 188 156 146 148 148 153 143 153 151 133 108 111 107 103 106 106 113 119 109 99 86 74 58 49 39 44 46 55 66 96 115 113 96 79 54 55 39 24 11 359 348 347 341 339 336 335 333 332 332 333 332 334
198 202 201 203 195 190 184 183 184 181 181 171 171 180 180 183 177 171 161 156 169 184 197 185 144 140 167 196 163 143 147 235 189 227 174 164 157 169 160 163 162 151 131 139 147 136 128 112 116 127 133 142 138 118 103 76 57 44 33 26 34 55 69 88 97 109 82 43 31 27 18 354 349 343 338 336 335 332 331 329 330 328 329 330 332
204 202 210 202 196 192 184 184 180 183 187 183 178 180 180 182 180 171 173 169 171 181 196 202 191 214 137 131 97 241 225 169 139 232 166 172 209 176 177 167 166 168 161 167 156 154 145 131 141 128 132 136 130 132 116 89 70 44 29 25 40 45 48 53 70 78 65 42 0 348 355 338 341 336 332 333 331 330 328 327 326 325 326 329 330
205 214 205 204 201 193 190 183 185 185 189 187 181 177 185 183 185 178 183 185 170 171 191 211 206 219 236 263 180 178 182 180 139 212 154 223 183 195 185 186 173 165 171 161 161 166 160 164 161 153 144 136 136 131 129 122 103 77 48 276 90 63 49 40 28 16 28 9 347 336 334 331 336 331 330 328 328 326 325 323 323 322 324 325 325
215 210 210 204 195 190 191 188 185 186 187 184 186 188 187 189 184 186 188 180 174 181 187 193 197 241 239 246 261 248 143 142 188 90 174 252 232 196 216 202 185 166 174 175 168 162 181 174 174 175 169 150 146 141 132 146 155 188 168 168 134 127 110 69 20 6 359 344 334 329 328 329 329 327 325 325 323 322 321 320 319 321 321 321 320
207 220 219 199 194 191 186 190 192 186 181 191 191 187 184 191 190 194 185 186 183 186 188 181 186 212 214 225 268 140 172 77 152 166 150 163 212 259 277 210 197 196 181 177 172 172 178 186 178 187 185 171 157 154 157 166 171 169 280 197 166 164 170 153 134 13 343 331 327 324 324 323 322 321 320 318 317 317 316 316 318 318 318 318 317
212 215 218 219 200 189 190 194 195 192 181 189 193 185 184 182 185 189 190 193 195 197 183 190 196 207 181 214 187 162 176 47 129 105 143 133 161 186 196 237 253 226 205 181 177 175 179 182 182 182 186 181 172 172 171 172 181 190 249 206 196 189 196 193 204 228 286 297 309 313 314 314 315 314 313 313 313 312 314 315 316 316 315 315 313
222 221 223 219 213 199 187 192 199 195 188 189 187 188 190 189 189 192 193 195 198 196 196 195 200 204 197 187 173 133 134 117 182 161 69 117 159 190 189 180 196 216 188 192 180 186 181 179 180 183 191 193 183 179 176 177 179 184 212 212 220 223 236 249 251 259 268 281 291 294 296 302 306 307 307 308 309 311 314 316 315 315 313 312 311
217 219 223 220 217 209 199 196 195 194 191 193 191 191 192 192 193 196 196 196 197 199 207 206 199 202 194 186 191 177 179 184 184 189 166 146 111 169 176 194 199 176 218 190 183 186 182 181 184 188 191 196 197 180 174 181 183 190 198 206 217 228 230 249 266 267 272 278 283 289 296 300 299 301 303 304 308 312 314 314 313 312 311 310 311
213 217 216 217 214 215 207 197 197 194 197 197 195 194 194 193 191 191 194 200 201 199 200 200 194 197 201 197 203 210 236 222 193 179 181 169 162 159 169 133 99 224 262 186 193 177 184 189 195 188 190 192 200 187 173 180 192 194 192 208 219 230 243 249 254 266 272 279 284 289 294 297 297 297 299 303 307 310 310 309 309 310 311 310 308
211 210 216 209 210 211 207 199 199 200 195 195 197 193 189 190 188 188 192 194 197 195 196 201 194 194 202 203 202 202 214 213 173 186 176 132 138 124 137 151 158 180 233 167 197 203 188 197 191 200 187 191 197 194 183 184 192 198 187 212 220 234 245 260 268 274 279 279 285 291 294 295 294 297 299 301 302 303 305 305 307 308 308 307 307
206 213 208 208 212 213 205 207 202 195 193 198 196 193 189 190 191 192 195 199 197 199 204 204 203 204 199 197 201 205 208 191 187 177 164 148 152 151 144 134 131 164 206 182 218 147 245 213 204 194 196 192 198 193 188 191 193 205 201 198 224 233 247 256 264 267 268 275 282 288 291 293 293 294 295 296 299 300 300 302 303 304 305 305 306
206 208 202 205 212 213 210 206 204 197 194 197 198 198 198 195 191 194 196 193 196 198 208 206 207 208 207 204 203 202 201 188 185 192 169 174 159 153 146 139 88 113 175 201 231 219 200 211 185 202 198 198 195 194 193 193 199 205 205 201 217 239 250 262 269 268 269 274 280 283 286 288 290 290 291 293 295 296 297 298 300 302 302 302 301
201 191 198 199 209 213 209 209 202 199 197 198 195 192 191 191 193 194 196 191 194 198 205 205 210 209 207 204 201 209 199 191 192 183 182 178 162 158 158 158 150 168 190 196 214 240 181 167 205 206 195 196 197 190 201 199 205 206 203 199 219 239 249 256 264 267 268 272 276 281 283 284 286 288 291 292 291 290 290 294 296 296 296 295 295
197 191 190 195 202 210 213 212 207 200 199 201 196 195 192 192 191 191 196 192 194 204 204 204 210 204 206 205 208 203 200 194 191 184 182 180 174 170 169 168 167 148 167 193 215 208 223 190 171 220 192 193 191 193 193 212 208 195 197 204 222 232 244 254 262 265 269 274 280 282 282 283 286 289 291 290 288 287 286 288 290 291 291 291 291
192 190 187 190 196 203 210 213 212 206 204 199 196 193 189 195 196 195 196 186 197 203 203 202 205 192 193 192 195 191 189 188 195 191 184 184 180 180 179 172 159 161 163 175 201 193 183 191 178 176 185 196 184 192 198 210 211 196 199 213 224 234 243 252 260 266 273 279 285 287 285 284 286 288 288 286 285 285 286 287 288 288 289 290 291
192 186 188 188 189 195 201 210 210 213 212 209 201 194 188 189 193 189 182 176 188 200 203 196 194 180 184 189 185 187 177 180 171 170 174 168 175 173 171 161 174 152 155 146 130 223 159 175 208 187 172 189 179 185 199 212 210 201 207 219 230 236 242 253 259 267 273 279 283 283 283 285 287 288 288 287 286 285 286 286 286 286 288 290 292
195 188 190 188 186 190 196 199 203 207 208 211 200 197 195 197 185 184 188 181 189 196 194 193 178 183 178 180 181 177 169 152 153 156 154 154 153 159 163 164 160 151 145 140 137 162 208 179 172 173 170 170 171 180 208 217 207 214 216 226 233 231 247 255 262 266 270 274 278 281 284 286 287 287 287 287 287 285 284 283 283 284 286 288 291
184 193 195 192 189 190 189 195 199 199 200 201 199 192 196 196 190 191 184 188 191 195 180 184 178 175 177 176 178 177 162 155 157 148 145 151 150 147 147 138 138 155 138 125 127 130 95 130 137 157 162 145 171 191 203 216 222 223 223 235 231 231 240 247 257 266 268 272 274 278 281 283 283 284 284 285 283 282 280 281 282 283 285 290 295
188 192 193 189 190 189 190 195 197 196 198 198 191 188 191 196 199 193 187 186 189 184 178 183 177 181 174 170 174 169 173 155 151 154 155 153 151 144 152 143 144 148 148 114 131 133 159 123 86 82 119 163 156 184 198 213 233 220 233 239 237 229 240 242 246 257 261 265 270 275 277 278 278 279 280 280 281 280 281 282 284 284 287 293 297
207 194 187 185 187 188 193 195 191 192 194 194 190 188 197 198 198 197 191 186 185 179 183 187 180 172 171 173 171 165 157 147 155 152 149 151 153 152 150 142 133 133 127 127 131 125 151 174 160 139 147 169 184 198 209 220 229 212 229 239 237 243 237 232 240 252 259 261 266 271 273 274 276 277 277 278 278 279 280 283 285 285 288 294 297
203 208 188 184 184 188 193 192 190 189 189 190 187 195 198 198 198 197 193 195 190 185 188 185 177 174 178 172 174 169 163 155 155 149 147 143 140 136 135 131 124 123 119 115 123 126 146 145 195 161 174 161 232 238 228 222 228 242 222 245 242 245 246 229 232 252 256 261 266 269 271 273 274 275 276 277 278 280 282 285 287 287 290 293 296
206 193 198 183 184 187 192 190 188 191 192 188 190 197 202 202 201 196 192 192 191 190 189 185 179 178 178 178 170 167 164 156 154 153 157 154 145 144 145 141 129 128 119 120 119 121 143 159 149 175 153 185 204 219 213 222 246 238 246 236 241 245 262 241 236 254 262 268 270 270 270 272 273 274 275 276 279 281 285 288 290 291 293 294 297
196 199 189 189 188 190 192 192 191 195 191 191 195 198 199 196 194 193 190 188 189 188 187 178 175 176 174 171 165 164 164 160 160 152 149 146 138 141 138 131 124 119 118 113 117 127 134 147 152 153 167 180 218 214 219 203 223 262 271 256 249 252 256 274 246 243 257 253 255 265 269 268 269 269 272 276 281 287 291 294 296 297 299 298 299
189 191 198 191 195 189 193 189 193 191 191 193 198 198 193 189 189 189 188 187 185 186 187 178 173 172 170 165 165 168 167 163 158 162 161 158 149 149 149 144 142 135 132 136 139 143 147 144 145 166 181 221 180 219 236 203 224 218 249 285 281 222 237 252 283 250 220 259 259 256 257 257 259 261 267 275 282 288 292 296 299 299 298 296 295
191 191 190 192 194 192 191 190 191 186 186 192 196 193 188 187 188 191 185 181 180 182 181 178 174 174 172 168 169 172 170 164 159 161 162 157 148 147 157 147 148 139 141 147 148 148 151 158 166 172 188 181 204 171 144 120 273 283 228 238 276 291 277 247 235 291 280 231 266 272 265 277 295 303 300 301 303 301 299 299 298 296 293 295 296
190 192 187 186 186 196 191 188 185 182 186 193 191 189 187 189 190 188 184 181 178 177 172 172 177 175 169 169 172 175 170 166 168 167 166 159 154 154 160 151 147 143 145 153 153 149 151 157 173 168 160 179 186 161 210 223 230 241 239 214 272 277 294 305 280 214 249 266 272 288 303 320 297 286 270 282 280 288 285 285 286 287 289 292 295
188 182 181 189 193 192 188 189 185 186 194 195 194 190 186 183 184 184 177 179 176 173 169 168 174 179 178 174 175 169 164 167 171 167 159 160 161 156 159 157 151 149 156 155 160 165 159 170 188 173 179 179 179 189 192 225 220 270 314 291 291 307 322 301 304 193 260 322 328 307 291 107 300 292 288 290 282 288 279 281 278 281 284 294 301
185 179 178 189 193 192 192 188 189 195 198 198 192 187 186 181 179 179 178 177 173 171 173 172 176 177 172 166 160 162 162 164 165 164 162 152 158 155 158 161 162 156 156 160 169 167 171 180 171 168 167 155 188 183 204 215 243 231 242 265 280 319 323 324 316 353 79 70 318 310 304 289 234 284 298 298 299 292 289 283 287 298 306 308 306
185 175 185 189 189 190 191 193 195 197 201 196 186 186 180 174 172 177 176 173 175 177 177 176 173 166 160 154 156 161 167 162 156 161 161 160 158 157 159 158 161 162 159 155 158 164 172 161 165 178 143 174 185 188 200 186 235 38 295 306 293 299 302 297 297 306 285 18 324 310 298 323 305 294 298 304 308 310 309 310 315 315 313 311 310
172 181 189 183 192 189 188 191 198 198 202 195 187 187 189 181 172 172 175 178 176 179 176 174 166 162 157 152 150 157 159 161 161 164 161 161 162 154 154 152 155 156 149 122 129 151 156 145 151 170 175 161 160 212 181 164 144 287 275 284 270 267 273 283 292 311 328 338 312 297 299 316 326 305 304 310 312 317 320 318 317 317 316 315 313
181 186 185 188 187 189 189 190 194 196 195 191 191 192 191 187 180 171 182 180 180 177 177 173 166 163 162 158 156 156 160 169 168 158 149 150 147 146 146 144 146 152 149 140 121 123 127 143 146 171 193 151 188 183 213 214 247 251 257 272 267 288 295 290 301 298 298 295 285 295 292 310 327 322 313 316 328 332 330 320 321 320 318 316 313
183 185 184 187 191 188 189 187 186 187 191 185 188 187 186 186 184 172 175 172 173 177 175 173 170 167 163 161 160 160 164 163 167 157 149 148 145 142 139 135 126 120 102 98 108 125 136 138 159 181 185 180 192 207 218 212 210 221 233 251 267 268 275 283 281 251 258 256 259 295 294 310 344 324 312 317 323 320 323 316 316 318 319 317 314
184 173 183 182 181 182 182 178 175 185 183 183 184 185 185 190 182 170 175 176 176 175 172 170 168 164 163 162 160 161 161 162 160 153 147 143 140 139 135 124 111 104 116 162 165 163 162 165 164 171 180 193 197 202 204 202 201 203 207 228 295 296 299 288 289 309 263 91 315 296 290 304 324 315 309 308 311 307 317 312 315 320 320 319 320
175 179 181 178 179 176 175 179 177 180 179 184 178 177 180 188 166 169 166 169 168 169 169 162 164 163 164 165 160 159 157 159 162 157 151 138 134 133 131 126 128 132 160 182 187 193 190 185 185 180 185 188 272 322 318 306 285 252 197 274 264 274 295 299 305 323 327 331 282 24 313 309 338 334 309 306 312 310 317 321 322 322 328 326 321
179 181 170 168 174 177 176 180 180 175 183 185 183 183 182 192 181 169 163 157 161 156 151 152 153 161 166 162 157 157 156 157 161 155 147 132 130 134 131 132 139 150 182 181 188 213 176 151 143 140 141 149 7 311 294 319 327 344 46 275 286 304 281 298 304 316 310 316 42 2 4 324 348 336 324 316 310 306 323 325 336 337 328 323 320
168 159 160 161 165 170 175 170 169 170 176 186 186 187 187 194 177 168 161 155 152 156 148 143 142 152 156 159 159 165 159 157 156 148 139 126 132 136 136 139 149 158 178 163 162 146 112 91 39 73 349 310 256 264 320 337 10 13 22 31 23 32 332 321 315 316 323 38 35 21 15 325 343 338 344 331 315 313 328 3 343 335 335 329 328